AFR612 LFPG-EDDM

Flight info

Callsign AFR612
Flight time 1h 11m
Altitude 33000
Route LANVI DCT LUPEN/N0384F270 T107 ROKIL
Aircraft A320/M-SDE3FGHIRWY/LB1

Departure

Time 2026-05-09 11:13
Airport Charles de Gaulle International Airport (LFPG)

Arrival

Time 2026-05-09 12:25
Airport Munich Airport (EDDM)
Time Latitude Longitude Altitude Speed Heading
2026-05-09 10:51 49.00741 2.57845 355 ft 0 kts 169°
2026-05-09 11:01 49.00742 2.57845 354 ft 1 kts 169°
2026-05-09 11:01 49.00764 2.57841 362 ft 4 kts 191°
2026-05-09 11:01 49.00784 2.57857 364 ft 4 kts 249°
2026-05-09 11:01 49.00786 2.57869 362 ft 0 kts 264°
2026-05-09 11:04 49.00784 2.57836 359 ft 11 kts 264°
2026-05-09 11:04 49.00808 2.57749 356 ft 8 kts 332°
2026-05-09 11:04 49.00857 2.57726 354 ft 7 kts 336°
2026-05-09 11:05 49.00883 2.57626 354 ft 16 kts 269°
2026-05-09 11:05 49.00873 2.57468 357 ft 14 kts 265°
2026-05-09 11:05 49.00864 2.57310 359 ft 15 kts 265°
2026-05-09 11:05 49.00855 2.57117 361 ft 22 kts 266°
2026-05-09 11:06 49.00843 2.56895 354 ft 20 kts 264°
2026-05-09 11:06 49.00832 2.56690 354 ft 19 kts 265°
2026-05-09 11:06 49.00821 2.56502 358 ft 17 kts 264°
2026-05-09 11:06 49.00806 2.56328 358 ft 16 kts 261°
2026-05-09 11:07 49.00789 2.56168 357 ft 15 kts 262°
2026-05-09 11:07 49.00771 2.55976 357 ft 22 kts 262°
2026-05-09 11:07 49.00751 2.55754 363 ft 20 kts 263°
2026-05-09 11:07 49.00734 2.55549 362 ft 19 kts 263°
2026-05-09 11:08 49.00721 2.55363 361 ft 17 kts 260°
2026-05-09 11:08 49.00658 2.55248 356 ft 14 kts 195°
2026-05-09 11:08 49.00558 2.55281 359 ft 20 kts 163°
2026-05-09 11:08 49.00413 2.55345 354 ft 22 kts 164°
2026-05-09 11:09 49.00263 2.55409 362 ft 22 kts 165°
2026-05-09 11:09 49.00111 2.55475 359 ft 23 kts 163°
2026-05-09 11:09 48.99961 2.55541 355 ft 20 kts 163°
2026-05-09 11:09 48.99855 2.55654 357 ft 19 kts 123°
2026-05-09 11:10 48.99817 2.55812 354 ft 14 kts 104°
2026-05-09 11:10 48.99796 2.55966 360 ft 16 kts 99°
2026-05-09 11:10 48.99735 2.56036 354 ft 6 kts 180°
2026-05-09 11:10 48.99708 2.56036 354 ft 0 kts 178°
2026-05-09 11:11 48.99673 2.56039 357 ft 10 kts 177°
2026-05-09 11:11 48.99616 2.56052 354 ft 6 kts 146°
2026-05-09 11:11 48.99613 2.56080 357 ft 0 kts 86°
2026-05-09 11:12 48.99613 2.56089 356 ft 5 kts 86°
2026-05-09 11:12 48.99635 2.56494 355 ft 76 kts 85°
2026-05-09 11:13 48.99695 2.57614 353 ft 136 kts 85°
2026-05-09 11:13 48.99790 2.59219 719 ft 155 kts 84°
2026-05-09 11:13 48.99891 2.60875 1513 ft 155 kts 85°
2026-05-09 11:13 48.99982 2.62512 2267 ft 156 kts 86°
2026-05-09 11:14 49.00067 2.64140 2919 ft 156 kts 85°
2026-05-09 11:14 49.00154 2.65794 3597 ft 159 kts 86°
2026-05-09 11:14 49.00247 2.67593 3971 ft 182 kts 86°
2026-05-09 11:14 49.00351 2.69633 4327 ft 206 kts 86°
2026-05-09 11:15 49.00456 2.71939 4745 ft 231 kts 86°
2026-05-09 11:15 49.00579 2.74457 5230 ft 253 kts 87°
2026-05-09 11:15 49.00715 2.77205 5999 ft 264 kts 89°
2026-05-09 11:15 49.00565 2.80010 6844 ft 270 kts 99°
2026-05-09 11:16 49.00271 2.82866 7741 ft 275 kts 101°
2026-05-09 11:16 48.99951 2.85764 8619 ft 281 kts 102°
2026-05-09 11:16 48.99620 2.88729 9470 ft 287 kts 102°
2026-05-09 11:16 48.99285 2.91757 10272 ft 295 kts 101°
2026-05-09 11:17 48.98935 2.94961 10606 ft 319 kts 101°
2026-05-09 11:17 48.98586 2.98390 11153 ft 333 kts 100°
2026-05-09 11:17 48.98282 3.01920 11917 ft 339 kts 99°
2026-05-09 11:17 48.97996 3.05507 12759 ft 343 kts 99°
2026-05-09 11:18 48.97711 3.09139 13555 ft 348 kts 99°
2026-05-09 11:18 48.97420 3.12814 14305 ft 352 kts 99°
2026-05-09 11:18 48.97117 3.16532 15002 ft 356 kts 99°
2026-05-09 11:18 48.96801 3.20299 15664 ft 361 kts 99°
2026-05-09 11:19 48.96478 3.24105 16342 ft 366 kts 99°
2026-05-09 11:19 48.96148 3.27969 17014 ft 370 kts 100°
2026-05-09 11:19 48.95811 3.31869 17669 ft 375 kts 100°
2026-05-09 11:19 48.95468 3.35825 18319 ft 380 kts 99°
2026-05-09 11:20 48.95122 3.39830 18888 ft 383 kts 100°
2026-05-09 11:20 48.94773 3.43870 19478 ft 387 kts 100°
2026-05-09 11:20 48.94419 3.47942 20077 ft 390 kts 100°
2026-05-09 11:20 48.94061 3.52048 20664 ft 393 kts 100°
2026-05-09 11:21 48.93704 3.56187 21292 ft 396 kts 99°
2026-05-09 11:21 48.93419 3.60363 21905 ft 399 kts 97°
2026-05-09 11:21 48.93267 3.63157 22308 ft 401 kts 97°
2026-05-09 11:21 48.93071 3.67401 22906 ft 404 kts 96°
2026-05-09 11:22 48.92822 3.73079 23671 ft 408 kts 96°
2026-05-09 11:22 48.92620 3.77397 24146 ft 411 kts 97°
2026-05-09 11:22 48.92401 3.81743 24636 ft 413 kts 97°
2026-05-09 11:22 48.92168 3.86102 25104 ft 415 kts 97°
2026-05-09 11:23 48.92004 3.89058 25413 ft 416 kts 98°
2026-05-09 11:23 48.91758 3.93452 25871 ft 418 kts 98°
2026-05-09 11:23 48.91508 3.97862 26328 ft 420 kts 98°
2026-05-09 11:23 48.91255 4.02290 26760 ft 422 kts 98°
2026-05-09 11:24 48.91001 4.06743 27197 ft 424 kts 98°
2026-05-09 11:24 48.90744 4.11218 27616 ft 426 kts 98°
2026-05-09 11:24 48.90492 4.15650 28039 ft 428 kts 98°
2026-05-09 11:24 48.90095 4.20179 28449 ft 426 kts 106°
2026-05-09 11:25 48.89270 4.24428 28842 ft 424 kts 115°
2026-05-09 11:25 48.88004 4.28457 29231 ft 422 kts 122°
2026-05-09 11:25 48.86569 4.32353 29619 ft 424 kts 122°
2026-05-09 11:25 48.85129 4.36269 30001 ft 426 kts 122°
2026-05-09 11:26 48.83684 4.40203 30321 ft 427 kts 122°
2026-05-09 11:26 48.82240 4.44143 30628 ft 428 kts 122°
2026-05-09 11:26 48.80788 4.48103 30926 ft 430 kts 122°
2026-05-09 11:26 48.79332 4.52071 31209 ft 432 kts 122°
2026-05-09 11:27 48.77866 4.56052 31484 ft 433 kts 122°
2026-05-09 11:27 48.76394 4.60047 31773 ft 434 kts 122°
2026-05-09 11:27 48.74922 4.64033 32166 ft 433 kts 122°
2026-05-09 11:27 48.73451 4.68007 32546 ft 431 kts 122°
2026-05-09 11:28 48.71984 4.71963 32912 ft 431 kts 122°
2026-05-09 11:28 48.70518 4.75909 33020 ft 426 kts 122°
2026-05-09 11:28 48.69093 4.79749 33009 ft 413 kts 122°
2026-05-09 11:29 48.66298 4.87257 33035 ft 408 kts 122°
2026-05-09 11:29 48.63508 4.94717 33033 ft 407 kts 122°
2026-05-09 11:30 48.60716 5.02149 33033 ft 407 kts 122°
2026-05-09 11:30 48.57921 5.09579 33035 ft 407 kts 122°
2026-05-09 11:31 48.55124 5.17000 33034 ft 406 kts 122°
2026-05-09 11:31 48.52323 5.24411 33008 ft 407 kts 122°
2026-05-09 11:32 48.49536 5.31784 33010 ft 408 kts 122°
2026-05-09 11:32 48.46711 5.39206 33011 ft 409 kts 123°
2026-05-09 11:33 48.43876 5.46635 33014 ft 409 kts 123°
2026-05-09 11:33 48.39614 5.57778 33022 ft 410 kts 123°
2026-05-09 11:34 48.36761 5.65196 33014 ft 410 kts 122°
2026-05-09 11:34 48.33903 5.72619 33023 ft 410 kts 122°
2026-05-09 11:35 48.31894 5.80666 33027 ft 417 kts 102°
2026-05-09 11:35 48.31873 5.89413 33032 ft 423 kts 86°
2026-05-09 11:36 48.32515 5.98204 33033 ft 423 kts 86°
2026-05-09 11:36 48.33125 6.07001 33029 ft 424 kts 86°
2026-05-09 11:37 48.33725 6.15821 33030 ft 425 kts 86°
2026-05-09 11:37 48.34327 6.24673 33031 ft 426 kts 86°
2026-05-09 11:38 48.34925 6.33454 33033 ft 426 kts 86°
2026-05-09 11:38 48.35522 6.42323 33038 ft 426 kts 86°
2026-05-09 11:39 48.36109 6.51186 33031 ft 427 kts 85°
2026-05-09 11:40 48.36978 6.64534 33036 ft 428 kts 86°
2026-05-09 11:40 48.37553 6.73451 33045 ft 429 kts 86°
2026-05-09 11:41 48.38125 6.82375 33045 ft 429 kts 86°
2026-05-09 11:41 48.38689 6.91322 33050 ft 429 kts 85°
2026-05-09 11:42 48.39247 7.00274 33047 ft 430 kts 85°
2026-05-09 11:42 48.39793 7.09193 33051 ft 431 kts 85°
2026-05-09 11:43 48.40333 7.18180 33053 ft 431 kts 85°
2026-05-09 11:43 48.40865 7.27180 33059 ft 432 kts 85°
2026-05-09 11:44 48.41400 7.36182 33057 ft 432 kts 85°
2026-05-09 11:44 48.41926 7.45192 33068 ft 433 kts 84°
2026-05-09 11:45 48.42436 7.54157 33070 ft 433 kts 84°
2026-05-09 11:45 48.42944 7.63192 33068 ft 433 kts 84°
2026-05-09 11:46 48.43440 7.72225 33066 ft 433 kts 85°
2026-05-09 11:46 48.43805 7.81182 33066 ft 433 kts 86°
2026-05-09 11:47 48.44005 7.90274 33061 ft 434 kts 87°
2026-05-09 11:47 48.44176 7.99356 33062 ft 435 kts 87°
2026-05-09 11:48 48.44385 8.08467 33066 ft 435 kts 87°
2026-05-09 11:48 48.44601 8.17562 33069 ft 435 kts 87°
2026-05-09 11:49 48.44815 8.26674 33076 ft 435 kts 87°
2026-05-09 11:49 48.45020 8.35785 33080 ft 435 kts 87°
2026-05-09 11:50 48.45207 8.44892 33074 ft 435 kts 87°
2026-05-09 11:50 48.45386 8.54009 33077 ft 435 kts 87°
2026-05-09 11:51 48.45566 8.63068 33079 ft 435 kts 87°
2026-05-09 11:51 48.45737 8.72114 33084 ft 436 kts 87°
2026-05-09 11:52 48.45902 8.81231 33081 ft 436 kts 87°
2026-05-09 11:52 48.46058 8.90400 33083 ft 436 kts 87°
2026-05-09 11:53 48.46197 8.99542 33081 ft 437 kts 87°
2026-05-09 11:53 48.46269 9.08695 33079 ft 437 kts 88°
2026-05-09 11:54 48.46262 9.17869 32689 ft 439 kts 88°
2026-05-09 11:54 48.46256 9.22488 31907 ft 442 kts 88°
2026-05-09 11:54 48.46251 9.27119 31151 ft 443 kts 88°
2026-05-09 11:54 48.46250 9.31774 30414 ft 444 kts 88°
2026-05-09 11:55 48.46252 9.36432 29604 ft 445 kts 88°
2026-05-09 11:56 48.46223 9.59633 25666 ft 440 kts 88°
2026-05-09 11:56 48.46209 9.64238 24938 ft 439 kts 89°
2026-05-09 11:56 48.46196 9.68822 24227 ft 437 kts 89°
2026-05-09 11:57 48.46190 9.73354 23511 ft 435 kts 88°
2026-05-09 11:57 48.46203 9.77934 22673 ft 433 kts 88°
2026-05-09 11:57 48.46228 9.82466 21881 ft 432 kts 88°
2026-05-09 11:57 48.46256 9.86983 21102 ft 431 kts 89°
2026-05-09 11:58 48.46279 9.91495 20343 ft 429 kts 89°
2026-05-09 11:58 48.46295 9.95983 19603 ft 428 kts 89°
2026-05-09 11:58 48.46307 10.00462 18888 ft 427 kts 89°
2026-05-09 11:58 48.46313 10.04928 18151 ft 426 kts 90°
2026-05-09 11:59 48.46318 10.09384 17342 ft 425 kts 90°
2026-05-09 11:59 48.46321 10.13829 16567 ft 424 kts 90°
2026-05-09 11:59 48.46322 10.18267 15824 ft 422 kts 90°
2026-05-09 11:59 48.46320 10.22651 15320 ft 415 kts 90°
2026-05-09 12:00 48.46316 10.26960 14833 ft 408 kts 90°
2026-05-09 12:00 48.46311 10.31195 14393 ft 400 kts 90°
2026-05-09 12:00 48.46307 10.35322 14175 ft 387 kts 90°
2026-05-09 12:00 48.46302 10.39296 14103 ft 370 kts 90°
2026-05-09 12:01 48.46295 10.43070 14114 ft 352 kts 90°
2026-05-09 12:01 48.46290 10.46710 13885 ft 343 kts 90°
2026-05-09 12:01 48.46283 10.50268 13611 ft 336 kts 90°
2026-05-09 12:01 48.46272 10.53746 13342 ft 329 kts 90°
2026-05-09 12:02 48.46259 10.57160 13074 ft 323 kts 90°
2026-05-09 12:02 48.46291 10.60470 12814 ft 319 kts 85°
2026-05-09 12:02 48.46568 10.63779 12552 ft 317 kts 82°
2026-05-09 12:02 48.46862 10.67069 12285 ft 316 kts 82°
2026-05-09 12:03 48.47150 10.70341 12036 ft 315 kts 82°
2026-05-09 12:03 48.47425 10.73502 11788 ft 314 kts 82°
2026-05-09 12:03 48.47706 10.76760 11533 ft 313 kts 82°
2026-05-09 12:03 48.47987 10.80007 11279 ft 312 kts 82°
2026-05-09 12:04 48.48266 10.83239 11033 ft 311 kts 82°
2026-05-09 12:04 48.48540 10.86438 10790 ft 309 kts 83°
2026-05-09 12:04 48.48811 10.89654 10545 ft 309 kts 83°
2026-05-09 12:04 48.49079 10.92859 10304 ft 308 kts 83°
2026-05-09 12:05 48.49347 10.96052 10121 ft 307 kts 83°
2026-05-09 12:05 48.49614 10.99203 10080 ft 301 kts 83°
2026-05-09 12:05 48.49880 11.02321 10082 ft 300 kts 83°
2026-05-09 12:05 48.50147 11.05437 10085 ft 300 kts 83°
2026-05-09 12:06 48.50413 11.08556 10087 ft 300 kts 83°
2026-05-09 12:06 48.50673 11.11677 10091 ft 300 kts 83°
2026-05-09 12:06 48.50931 11.14791 10091 ft 300 kts 83°
2026-05-09 12:06 48.51187 11.17912 10095 ft 300 kts 83°
2026-05-09 12:07 48.51444 11.21037 10063 ft 300 kts 83°
2026-05-09 12:07 48.51698 11.24159 9808 ft 301 kts 83°
2026-05-09 12:07 48.51945 11.27278 9411 ft 298 kts 83°
2026-05-09 12:07 48.52191 11.30380 9036 ft 297 kts 83°
2026-05-09 12:08 48.52435 11.33446 8774 ft 293 kts 83°
2026-05-09 12:08 48.52671 11.36488 8518 ft 292 kts 83°
2026-05-09 12:08 48.52906 11.39519 8263 ft 290 kts 83°
2026-05-09 12:08 48.53142 11.42535 8112 ft 288 kts 83°
2026-05-09 12:09 48.53375 11.45490 8110 ft 288 kts 83°
2026-05-09 12:09 48.53614 11.48497 8112 ft 289 kts 83°
2026-05-09 12:09 48.53853 11.51503 8115 ft 288 kts 83°
2026-05-09 12:10 48.54559 11.60502 8115 ft 289 kts 83°
2026-05-09 12:10 48.54795 11.63503 8113 ft 288 kts 83°
2026-05-09 12:10 48.55032 11.66506 8115 ft 289 kts 83°
2026-05-09 12:11 48.55269 11.69519 8117 ft 289 kts 83°
2026-05-09 12:11 48.55503 11.72528 8118 ft 288 kts 83°
2026-05-09 12:11 48.55515 11.75527 8116 ft 287 kts 103°
2026-05-09 12:11 48.54700 11.78232 8116 ft 286 kts 130°
2026-05-09 12:12 48.53172 11.80091 8119 ft 282 kts 158°
2026-05-09 12:12 48.51282 11.80692 8116 ft 279 kts 184°
2026-05-09 12:12 48.49437 11.79926 8113 ft 275 kts 212°
2026-05-09 12:12 48.48062 11.77989 8117 ft 270 kts 238°
2026-05-09 12:13 48.47170 11.75558 8109 ft 265 kts 244°
2026-05-09 12:13 48.46361 11.73063 8111 ft 264 kts 244°
2026-05-09 12:13 48.45834 11.71411 8112 ft 265 kts 244°
2026-05-09 12:13 48.45156 11.67861 8115 ft 265 kts 263°
2026-05-09 12:14 48.45029 11.66030 8113 ft 265 kts 264°
2026-05-09 12:14 48.44863 11.63265 8095 ft 266 kts 264°
2026-05-09 12:14 48.44704 11.60495 7833 ft 264 kts 264°
2026-05-09 12:14 48.44550 11.57733 7489 ft 264 kts 264°
2026-05-09 12:15 48.44398 11.54976 7120 ft 264 kts 264°
2026-05-09 12:15 48.44246 11.52219 6835 ft 264 kts 264°
2026-05-09 12:15 48.44097 11.49456 6593 ft 265 kts 264°
2026-05-09 12:15 48.43942 11.46693 6341 ft 265 kts 264°
2026-05-09 12:16 48.43787 11.43926 6100 ft 265 kts 264°
2026-05-09 12:16 48.43640 11.41225 6000 ft 252 kts 264°
2026-05-09 12:16 48.43498 11.38644 6006 ft 246 kts 264°
2026-05-09 12:16 48.43362 11.36076 6011 ft 246 kts 264°
2026-05-09 12:17 48.43189 11.33515 6012 ft 245 kts 255°
2026-05-09 12:17 48.42415 11.31288 6010 ft 241 kts 224°
2026-05-09 12:17 48.41052 11.29854 6012 ft 240 kts 207°
2026-05-09 12:17 48.39563 11.28717 6009 ft 240 kts 204°
2026-05-09 12:18 48.37982 11.28031 6007 ft 237 kts 178°
2026-05-09 12:18 48.36411 11.28657 6010 ft 236 kts 147°
2026-05-09 12:18 48.35294 11.30430 6015 ft 236 kts 120°
2026-05-09 12:18 48.34546 11.32621 6011 ft 236 kts 115°
2026-05-09 12:19 48.33854 11.34859 6008 ft 235 kts 114°
2026-05-09 12:19 48.33209 11.37118 6008 ft 235 kts 105°
2026-05-09 12:19 48.33163 11.39547 6007 ft 236 kts 78°
2026-05-09 12:19 48.33512 11.41957 5932 ft 234 kts 81°
2026-05-09 12:20 48.33727 11.44352 5692 ft 229 kts 84°
2026-05-09 12:20 48.33908 11.46694 5397 ft 221 kts 84°
2026-05-09 12:20 48.34084 11.48929 5117 ft 211 kts 84°
2026-05-09 12:20 48.34255 11.51070 4849 ft 202 kts 84°
2026-05-09 12:21 48.34416 11.53085 4607 ft 191 kts 83°
2026-05-09 12:21 48.34570 11.55017 4334 ft 182 kts 84°
2026-05-09 12:21 48.34716 11.56864 4091 ft 176 kts 84°
2026-05-09 12:21 48.34859 11.58680 3863 ft 174 kts 83°
2026-05-09 12:22 48.35002 11.60483 3641 ft 173 kts 83°
2026-05-09 12:22 48.35143 11.62271 3415 ft 172 kts 84°
2026-05-09 12:22 48.35284 11.64055 3183 ft 170 kts 84°
2026-05-09 12:22 48.35418 11.65759 2960 ft 158 kts 84°
2026-05-09 12:23 48.35540 11.67315 2763 ft 144 kts 84°
2026-05-09 12:23 48.35654 11.68766 2580 ft 137 kts 83°
2026-05-09 12:23 48.35763 11.70168 2387 ft 134 kts 84°
2026-05-09 12:23 48.35875 11.71543 2154 ft 133 kts 82°
2026-05-09 12:24 48.35982 11.72922 1996 ft 134 kts 84°
2026-05-09 12:24 48.36082 11.74301 1846 ft 132 kts 84°
2026-05-09 12:24 48.36192 11.75671 1667 ft 133 kts 84°
2026-05-09 12:24 48.36299 11.77042 1499 ft 129 kts 84°
2026-05-09 12:25 48.36384 11.78168 1481 ft 73 kts 83°
2026-05-09 12:25 48.36411 11.78623 1485 ft 34 kts 92°
2026-05-09 12:25 48.36347 11.78934 1478 ft 30 kts 113°
2026-05-09 12:25 48.36282 11.79163 1478 ft 18 kts 113°
2026-05-09 12:26 48.36212 11.79237 1480 ft 14 kts 206°
2026-05-09 12:26 48.36187 11.79117 1485 ft 8 kts 263°
2026-05-09 12:26 48.36180 11.79035 1485 ft 8 kts 263°
2026-05-09 12:26 48.36174 11.78960 1481 ft 7 kts 263°
2026-05-09 12:27 48.36168 11.78879 1485 ft 8 kts 264°
2026-05-09 12:27 48.36163 11.78803 1479 ft 7 kts 264°
2026-05-09 12:27 48.36157 11.78734 1483 ft 9 kts 263°
2026-05-09 12:27 48.36142 11.78537 1485 ft 23 kts 263°
2026-05-09 12:28 48.36123 11.78298 1481 ft 22 kts 264°
2026-05-09 12:28 48.36106 11.78069 1474 ft 22 kts 264°
2026-05-09 12:28 48.36091 11.77865 1479 ft 16 kts 263°
2026-05-09 12:28 48.36088 11.77828 1477 ft 0 kts 263°
2026-05-09 12:31 48.36081 11.77746 1483 ft 9 kts 262°
2026-05-09 12:31 48.36059 11.77667 1485 ft 9 kts 214°
2026-05-09 12:32 48.35954 11.77681 1481 ft 18 kts 174°
2026-05-09 12:32 48.35823 11.77700 1473 ft 20 kts 174°
2026-05-09 12:32 48.35683 11.77723 1482 ft 21 kts 172°
2026-05-09 12:32 48.35537 11.77752 1479 ft 21 kts 172°
2026-05-09 12:33 48.35410 11.77772 1485 ft 15 kts 173°
2026-05-09 12:33 48.35334 11.77829 1481 ft 12 kts 106°
2026-05-09 12:33 48.35342 11.77970 1485 ft 15 kts 83°
2026-05-09 12:33 48.35350 11.78116 1481 ft 12 kts 101°
2026-05-09 12:34 48.35278 11.78173 1481 ft 14 kts 174°
2026-05-09 12:34 48.35179 11.78190 1482 ft 15 kts 173°
2026-05-09 12:34 48.35073 11.78209 1483 ft 14 kts 173°
2026-05-09 12:34 48.35012 11.78220 1485 ft 1 kts 174°
2026-05-09 12:35 48.35010 11.78220 1485 ft 0 kts 174°
2026-05-09 12:35 48.35005 11.78221 1485 ft 0 kts 174°
2026-05-09 12:35 48.34969 11.78227 1480 ft 14 kts 174°
2026-05-09 12:35 48.34903 11.78224 1473 ft 5 kts 174°
2026-05-09 12:36 48.34873 11.78280 1483 ft 8 kts 118°
2026-05-09 12:36 48.34861 11.78343 1484 ft 2 kts 89°
2026-05-09 12:36 48.34862 11.78359 1485 ft 1 kts 85°
2026-05-09 12:36 48.34864 11.78391 1485 ft 2 kts 84°
2026-05-09 12:37 48.34864 11.78396 1485 ft 0 kts 84°